Regional Weather Roundup
Issued by NWS Charleston, SC

Current Version | Previous Version | Graphics & Text | Print | Product List | Glossary On
Versions: 1 2 3 4 5 6 7 8 9 10 11 12 13 14 15 16 17 18 19 20 21 22 23 24 25 26 27 28 29 30 31 32 33 34 35 36 37 38 39 40 41 42 43 44 45 46 47 48 49 50
950
ASUS42 KCHS 291327
RWRCHS

REGIONAL WEATHER ROUNDUP
NATIONAL WEATHER SERVICE CHARLESTON SC
900 AM EDT WED MAR 29 2017

NOTE: "FAIR" INDICATES FEW OR NO CLOUDS BELOW 12,000 FEET WITH NO
SIGNIFICANT WEATHER AND/OR OBSTRUCTIONS TO VISIBILITY.

NOT ALL STATIONS ARE QUALITY CONTROLLED. USE DATA WITH CAUTION...
ESPECIALLY DEWPOINT OBSERVATIONS.

SCZ027-030-031-034>040-042>050-291400-
...SOUTHEAST SOUTH CAROLINA...

CITY           SKY/WX    TMP DP  RH WIND       PRES   REMARKS
N CHARLESTON   MOSUNNY   67  55  65 NE9       30.01R
WATERFRONT PRK   N/A     65  59  81 N8        29.99R
JOHNS ISLAND   FAIR      70  57  64 NE8       30.01R
PINOPOLIS        N/A     64  57  77 NE7       29.92R
MONCKS CORNER  FAIR      66  52  59 N7        30.02R
SUMMERVILLE    FAIR      64  55  72 N6        30.03R
BEAUFORT MCAS  SUNNY     68  61  78 NE8       30.01R
BEAUFORT ARPT  FAIR      68  59  73 NE12      30.01S HAZE
HILTON HEAD IS SUNNY     68  61  77 N7        30.02R
WALTERBORO     SUNNY     66  54  63 NE7       30.03S
ALLENDALE      FAIR      66  54  63 VRB5      30.03R

...SOUTHERN MIDLANDS AND PEE DEE...

CITY           SKY/WX    TMP DP  RH WIND       PRES   REMARKS
GEORGETOWN     FAIR      66  54  63 NE12      30.02R
KINGSTREE      FAIR      64  52  63 N5        30.03R
ORANGEBURG     SUNNY     66  51  58 NE10      30.03R
BARNWELL       FAIR      70  54  56 E8        30.04R
AIKEN          FAIR      63  52  67 NE8       30.08R
MANNING        FAIR      64  52  63 NE8       30.03R
COLUMBIA       SUNNY     63  55  75 CALM      30.04R
SUMTER         SUNNY     65  52  63 N3        30.01R
FLORENCE       SUNNY     64  53  67 N12       30.02R
MYRTLE BEACH   NOT AVBL
N MYRTLE BEACH SUNNY     65  54  67 N7        30.00R

$$

GAZ063-065-086>088-099>101-113>116-118-119-134>141-150-291400-
...SOUTHEAST GEORGIA...

CITY           SKY/WX    TMP DP  RH WIND       PRES   REMARKS
SAVANNAH ARPT  MOSUNNY   68  59  73 N7        30.01R
HUNTER AAF     SUNNY     69  64  83 N8        29.99R
FORT STEWART   SUNNY     68  62  83 N3        29.99R
STATESBORO     SUNNY     70  59  68 CALM      30.03R
SYLVANIA       SUNNY    N/A N/A N/A E6        30.05R
CLAXTON        FAIR     N/A N/A N/A CALM      30.03R

...CSRA...CENTRAL AND FAR SOUTHEAST GEORGIA...

CITY           SKY/WX    TMP DP  RH WIND       PRES   REMARKS
THOMSON        SUNNY     64  54  70 S6        30.11R
AUGUSTA-BUSH   SUNNY     66  56  70 NW3       30.04R
AUGUSTA-DANIEL SUNNY     68  49  50 E8        30.05R
SWAINSBORO     FAIR      68  55  64 E7        30.05R
VIDALIA        SUNNY     70  63  78 N6        30.04R
EASTMAN        FAIR      69  58  67 N3        30.06R
HAZLEHURST     FAIR      70  66  88 CALM      30.02R
ALMA           SUNNY     67  65  93 NW3       30.02R
WAYCROSS       SUNNY     73  70  88 N8        30.03R
JESUP          FAIR      72  63  73 NW6       30.02R
BAXLEY         FAIR      70  70 100 CALM      30.03R
BRUNSWICK      SUNNY     72  66  83 NW9       30.02R
SAINT SIMONS   SUNNY     70  63  78 NW6       30.00R

$$

SCZ027-028-034-036>038-045-046-048>050-GAZ119-141-291400-
...LAKE AND SUPPLEMENTAL COASTAL OBSERVATIONS...

STATION/POSITION TIME  TEMP    WIND        PRES    WAVE   SWELL
                       AIR SEA DIR/SP/G            HT/PER HT/PER/DIR
                 (UTC) (F)     (DEG/KT/KT) (MB)    (FT/S) (FT/S/D)
WINYAH BAY       1230   65      20/  6     1015.0S
LAKE MURRAY      1250   64      CALM  /  2 1017.3R
ACE BASIN NERRS  1230   64     360/  2     1016.0R
FORT PULASKI     1300   67 66  350/  7/  8 1016.4
SAPELO ISLAND    1300   69     320/  5     1016.0

$$

ANZ835-935-AMZ111-154-330-350-352-354-370-450-454-472-291400-
...C-MAN AND BUOY OBSERVATIONS...

STATION/POSITION TIME  TEMP    WIND        PRES    WAVE   SWELL
                       AIR SEA DIR/SP/G            HT/PER HT/PER/DIR
                 (UTC) (F)     (DEG/KT/KT) (MB)    (FT/S) (FT/S/D)
BUOY 41004       1250   70 70   30/ 12/ 14 1014.8R   4/10   3/110/10
BUOY 41008       1250   66 64  280/  4/  6 1015.6R   3/10   3/ 90/10
FOLLY BEACH CMAN 1300   66      30/  7/  8 1016.6R
CAPERS NEARSHORE NOT AVBL
FRIPP NEARSHORE  1308   65 63   20/  6/  8 1015.7R


STATION/POSITION TIME  TEMP    WIND        PRES    WAVE   SWELL
                       AIR SEA DIR/SP/G            HT/PER HT/PER/DIR
                 (UTC) (F)     (DEG/KT/KT) (MB)    (FT/S) (FT/S/D)
5E ST. MARYS GA  1300      67                N/A     3/11   2/100/11
FRYING PAN BUOY  1300   69 74   10/ 12/ 16 1015.1
BUOY 41025       1250   59 74   10/ 19/ 23 1015.4R   5/10   3/140/10
CAPE LOOKOUT NC  1300   62      40/ 17/ 20 1016.0R
BUOY 41002       1250   68 72  320/ 12/ 14 1015.0R   6/10   5/110/10
BUOY 41010       NOT AVBL
ST AUGUSTINE FL  1300   68 67  260/  7/  9 1017.9R


$$




USA.gov is the U.S. government's official web portal to all federal, state and local government web resources and services.